Regional Weather Roundup
Issued by NWS

Home | Current Version | Previous Version | Graphics & Text | Print | Product List | Glossary On
Versions: 1 2 3 4 5 6 7 8 9 10 11 12 13 14 15 16 17 18 19 20 21 22 23 24 25 26 27 28 29 30 31 32 33 34 35 36 37 38 39 40 41 42 43 44 45 46 47 48 49 50
000
ASUS43 KLSX 200607
RWRMO

WEATHER SUMMARY FOR MISSOURI
NATIONAL WEATHER SERVICE SPRINGFIELD MO
1200 AM CST MON FEB 20 2017

NOTE: "FAIR" INDICATES FEW OR NO CLOUDS BELOW 12,000 FEET WITH NO
       SIGNIFICANT WEATHER AND/OR OBSTRUCTIONS TO VISIBILITY.
       CURRENT SKY AND/OR WEATHER CONDITIONS ARE NOT AVAILABLE FOR
       CHILLICOTHE AND FARMINGTON.

MOZ001>031-035>038-043-044-053-054-200700-
...NORTHERN AND WESTERN MISSOURI...

CITY           SKY/WX    TMP DP  RH WIND       PRES   REMARKS
KANSAS CTY INT MOCLDY    62  54  74 S9        29.88S
6HR MIN TEMP:  57; 6HR MAX TEMP:  67;

KANSAS C DTWN  PTCLDY    65  55  70 SE9       29.88F
6HR MIN TEMP:  64; 6HR MAX TEMP:  72;

LEE`S SUMMIT   PTCLDY    63  56  78 SE13      29.90F
6HR MIN TEMP:  63; 6HR MAX TEMP:  70;

ST JOSEPH      MOCLDY    55  53  93 S6        29.87S
6HR MIN TEMP:  53; 6HR MAX TEMP:  69;

CHILLICOTHE      N/A     62  53  72 S7        29.93R
6HR MIN TEMP:  61; 6HR MAX TEMP:  70;

KIRKSVILLE     PTCLDY    55  49  80 S9        29.96S
6HR MIN TEMP:  55; 6HR MAX TEMP:  63;


$$
MOZ066>068-077>081-088>096-101>105-200700-
...SOUTHWEST MISSOURI...

CITY           SKY/WX    TMP DP  RH WIND       PRES   REMARKS
SPRINGFIELD    PTCLDY    61  56  83 SE18      29.96F
6HR MIN TEMP:  61; 6HR MAX TEMP:  69;

JOPLIN         PTCLDY    64  56  75 SE9       29.91F
6HR MIN TEMP:  62; 6HR MAX TEMP:  72;

BRANSON        CLOUDY    57  57 100 SE10      30.01R

$$
MOZ032>034-039>042-045>050-055>058-069>072-200700-
...CENTRAL MISSOURI...

CITY           SKY/WX    TMP DP  RH WIND       PRES   REMARKS
COLUMBIA       CLEAR     61  55  81 S13       29.99F
6HR MIN TEMP:  60; 6HR MAX TEMP:  71;

JEFFERSON CITY CLEAR     61  54  77 SE7       29.99F
6HR MIN TEMP:  61; 6HR MAX TEMP:  71;

ROLLA          CLEAR     58  55  90 S10       30.01F
6HR MIN TEMP:  58; 6HR MAX TEMP:  67;

SEDALIA        CLEAR     62  56  80 S14       29.97R
6HR MIN TEMP:  62; 6HR MAX TEMP:  71;

WHITEMAN AFB   MOCLDY    62  62 100 S10       29.93S
WARRENSBURG    CLOUDY    61  54  77 SE12      29.93R
OSAGE BEACH    CLEAR     60  55  83 SE9       29.99F

$$
MOZ051-052-059>065-200700-
...EAST CENTRAL MISSOURI...

CITY           SKY/WX    TMP DP  RH WIND       PRES   REMARKS
ST LOUIS INTL  CLOUDY    59  53  80 SE9       30.05F
6HR MIN TEMP:  58; 6HR MAX TEMP:  66;

SPIRIT OF STL  CLOUDY    54  52  93 E3        30.04S
6HR MIN TEMP:  52; 6HR MAX TEMP:  67;

ST CHARLES     CLOUDY    50  48  93 E9        30.05S
6HR MIN TEMP:  50; 6HR MAX TEMP:  61;


$$
MOZ072>076-082>087-097>100-106>115-200700-
...SOUTH CENTRAL AND SOUTHEAST MISSOURI...

CITY           SKY/WX    TMP DP  RH WIND       PRES   REMARKS
CAPE GIRARDEAU FOG       47  46  97 CALM      30.09S VSB 1/4
6HR MIN TEMP:  46; 6HR MAX TEMP:  56;

FARMINGTON     CLEAR     55  54  96 SE7       30.08S FOG
6HR MIN TEMP:  53; 6HR MAX TEMP:  64;

POPLAR BLUFF   FOG       50  50 100 NE3       30.07S VSB 1/4
6HR MIN TEMP:  50; 6HR MAX TEMP:  62;

WEST PLAINS    CLEAR     56  54  93 SE5       30.05F
6HR MIN TEMP:  56; 6HR MAX TEMP:  65;


$$



USA.gov is the U.S. government's official web portal to all federal, state and local government web resources and services.